EHI
0 0 0 0 0 1 1 1 0 0 0 0 0 0 0 0 2 6 10 14 12 6 3 1 0 0 0 0 0 0 0 0 0 0 0 0 0 0 0 0 0 0 0
0 0 0 0 0 0 0 0 0 0 0 0 0 0 0 0 2 4 7 8 7 4 2 2 1 0 0 0 0 0 0 0 0 0 0 0 0 0 0 0 0 0 0
0 0 0 0 0 0 0 0 0 0 0 0 0 0 0 0 1 2 2 2 2 2 1 2 2 1 0 0 0 0 0 0 0 0 0 0 0 0 0 0 0 0 0
0 0 0 0 0 0 0 0 0 0 0 0 0 0 0 0 0 0 0 0 0 0 0 1 3 3 1 0 0 0 0 0 0 0 0 0 0 0 0 0 0 0 0
0 0 0 0 0 0 0 0 0 0 0 0 0 0 0 0 0 0 0 0 0 0 0 0 2 3 2 0 0 0 0 0 0 0 0 1 1 1 1 1 1 0 0
0 0 0 0 0 1 1 0 0 0 0 0 0 0 0 0 0 0 0 0 0 1 1 0 0 1 1 0 0 0 0 0 0 0 0 1 2 2 2 2 2 1 0
0 0 0 0 0 1 1 0 0 0 0 0 0 0 0 0 0 0 0 0 0 1 1 1 0 0 0 0 0 1 2 2 1 0 0 1 2 2 3 3 2 1 0
0 0 0 0 0 1 1 0 0 0 0 0 0 0 0 0 0 0 0 0 0 0 2 3 1 0 0 0 1 2 4 5 4 2 0 0 1 2 3 3 1 0 0
0 0 0 0 0 0 0 0 0 0 0 0 0 0 0 0 0 0 0 0 0 0 2 3 1 0 0 0 0 1 2 4 4 3 1 1 1 2 3 2 1 0 0
0 0 0 0 0 0 0 0 0 0 0 0 0 0 0 0 0 0 0 0 0 0 1 1 0 0 0 0 0 0 0 1 3 3 3 2 1 2 2 1 0 0 0
0 0 0 0 0 0 0 0 0 0 0 0 0 0 0 0 0 0 0 0 0 0 0 0 0 0 0 0 0 0 0 0 1 3 5 4 2 1 1 0 0 0 0
0 0 0 0 0 0 0 0 0 0 0 0 0 0 0 0 0 0 0 0 0 0 0 0 0 0 0 0 0 0 0 0 0 2 4 5 3 1 0 0 0 0 0
0 0 0 0 0 0 0 0 0 0 0 0 0 0 0 0 0 0 0 0 0 0 0 0 0 0 0 0 0 0 0 0 0 0 2 3 3 1 0 0 0 0 0
0 0 0 0 0 0 0 0 0 0 0 0 0 0 0 0 0 0 0 0 0 0 0 0 0 0 1 1 0 0 0 0 0 0 0 1 1 1 0 0 0 0 0
0 0 0 0 0 0 0 0 0 0 0 0 0 0 0 0 0 0 0 0 0 0 0 0 0 0 1 1 0 0 0 0 0 0 0 0 0 0 0 0 0 0 0
0 0 0 0 0 0 0 0 0 0 0 0 0 0 0 0 0 0 0 0 0 0 0 0 0 0 1 1 0 0 0 0 0 0 0 0 0 0 0 0 0 0 0
0 0 0 0 0 0 0 0 0 0 0 0 0 0 0 0 0 0 0 0 0 0 0 0 0 0 0 0 0 0 0 0 0 0 0 0 0 0 0 0 0 0 0
0 0 0 0 0 0 0 0 0 0 0 0 0 0 0 0 0 0 0 0 0 0 0 0 0 1 0 0 0 0 0 0 0 0 0 0 0 0 0 0 0 0 0
0 0 0 0 0 0 0 0 0 0 0 0 0 0 0 0 0 0 0 0 0 0 0 0 0 0 0 0 0 0 0 0 0 0 0 0 0 0 0 0 0 0 0
0 0 0 0 0 0 0 0 0 0 0 0 0 0 0 0 0 0 0 0 0 0 0 0 0 0 0 0 0 0 0 0 0 0 0 0 0 0 0 0 0 0 0
0 0 0 0 0 0 0 0 0 0 0 0 0 0 0 0 0 0 0 0 0 0 0 0 0 0 0 0 0 0 0 0 0 0 0 0 0 0 0 0 0 0 0
0 0 0 0 0 0 0 0 0 0 0 0 0 0 0 0 0 0 0 0 0 0 0 0 0 0 0 0 0 0 0 0 0 0 0 0 0 0 0 0 0 0 0
0 0 0 0 0 0 0 0 0 0 0 0 0 0 0 0 0 0 0 0 0 0 0 0 0 0 0 0 0 0 0 0 0 0 0 0 0 0 0 0 0 0 0
0 0 0 0 0 0 0 0 0 0 0 0 0 0 0 0 0 0 0 0 0 0 0 0 0 0 0 0 0 0 0 0 0 0 0 0 0 0 0 0 0 0 0
0 0 0 0 0 0 0 0 0 0 0 0 0 0 0 0 0 0 0 0 0 0 0 0 0 0 0 0 0 0 0 0 0 0 0 0 0 0 0 0 0 0 0
0 0 0 0 0 0 0 0 0 0 0 0 0 0 0 0 0 0 0 0 0 0 0 0 0 0 0 0 0 0 0 0 0 0 0 0 0 0 0 0 0 0 0
Wind_Speed
3 3 3 3 3 3 3 3 3 4 5 6 5 6 5 6 4 6 6 12 13 11 10 9 8 8 7 6 5 5 6 7 7 8 9 9 10 10 10 9 9 9 9
2 3 3 3 3 3 3 3 4 4 4 4 5 4 4 3 3 6 7 9 12 12 11 10 10 9 9 7 7 6 7 7 8 8 9 9 10 10 10 9 9 8 8
2 2 2 2 3 4 4 4 4 3 4 5 5 5 4 3 2 4 7 7 7 11 12 11 11 11 10 9 8 8 8 7 8 9 9 10 10 10 10 10 9 8 8
4 3 1 2 2 3 3 4 4 4 4 4 4 4 4 2 3 2 4 6 7 7 10 12 12 12 11 11 10 10 9 9 8 9 9 10 10 10 9 9 9 8 7
6 4 2 2 3 2 3 4 3 4 4 4 4 4 4 2 3 4 4 5 6 8 8 11 13 13 12 11 11 11 11 11 10 10 10 10 10 10 9 9 9 8 8
6 5 3 3 2 2 2 2 3 4 4 4 5 4 3 3 2 3 4 4 4 7 9 10 9 10 13 12 12 12 13 13 12 11 11 11 11 10 10 10 9 9 8
5 5 4 4 3 2 3 3 2 3 4 3 2 2 3 4 4 3 4 4 4 4 6 9 8 7 8 13 13 13 14 14 14 13 13 13 12 11 11 10 10 10 9
4 5 4 4 3 2 3 3 2 2 2 3 3 2 2 2 4 6 5 5 5 4 5 10 9 9 9 7 10 14 13 13 15 15 14 13 12 12 11 11 11 10 9
3 3 4 4 4 3 3 3 3 3 3 3 3 3 3 3 2 3 6 6 5 4 4 5 8 9 10 9 9 14 15 14 14 16 16 15 14 13 12 12 11 10 9
3 3 4 4 4 3 3 3 3 2 3 3 3 3 3 2 2 2 3 5 6 5 5 4 5 6 8 7 10 16 18 16 15 16 16 16 15 15 14 13 12 11 10
3 3 3 4 4 3 3 3 3 3 3 3 3 2 3 3 3 2 3 3 3 4 4 4 4 3 5 6 8 14 20 18 17 16 16 17 16 16 15 14 13 12 11
3 4 4 4 4 3 4 4 3 4 3 4 4 3 3 3 3 3 3 3 3 3 4 4 3 3 3 4 8 16 20 19 18 16 15 15 16 16 16 16 15 14 13
3 4 4 4 3 3 4 4 4 4 4 4 4 4 4 4 3 3 3 3 3 2 2 3 4 4 4 3 4 16 19 19 18 17 15 14 14 15 15 16 16 15 14
3 4 4 4 4 4 4 4 3 4 3 4 5 4 4 4 4 4 4 3 3 3 3 4 3 4 4 4 6 14 12 19 18 18 16 15 14 14 14 15 15 15 15
4 4 4 5 5 4 4 3 3 4 4 4 4 5 4 4 4 4 4 4 4 4 5 5 4 4 5 4 8 7 8 16 18 18 17 16 15 15 14 14 14 13 13
4 4 4 5 5 5 4 4 3 4 4 4 4 4 4 4 4 4 4 4 4 5 4 4 4 3 4 5 8 7 7 14 18 18 18 17 16 16 15 15 14 13 13
5 5 4 5 5 5 4 4 5 5 5 5 5 4 4 4 3 3 4 4 5 5 6 4 2 3 4 4 5 6 6 7 9 17 18 18 17 17 16 16 15 14 14
4 5 4 4 5 5 5 5 6 6 6 5 5 4 4 4 4 3 3 4 4 5 5 6 4 3 5 5 5 6 6 7 7 14 18 18 18 17 17 16 16 15 15
5 5 5 5 5 5 5 5 6 7 7 6 6 5 4 4 4 3 3 3 3 4 5 5 4 3 3 4 4 5 5 4 6 9 15 16 17 18 17 17 16 16 16
5 5 5 5 5 5 5 6 7 7 7 7 6 5 5 4 3 3 3 3 3 4 4 4 4 3 3 4 4 4 4 4 5 5 8 10 13 16 17 18 17 17 16
6 5 5 5 5 5 5 6 7 8 8 8 7 5 5 4 3 3 2 2 3 2 3 3 3 3 3 4 5 4 5 4 4 4 5 6 8 8 11 15 18 18 17
5 4 4 5 5 5 6 7 7 7 8 7 7 5 5 3 3 4 5 5 4 4 4 3 3 4 5 5 4 5 5 5 4 5 6 6 7 8 8 9 14 19 19
4 4 4 4 4 4 6 8 10 7 7 7 7 5 5 4 4 3 4 5 6 8 9 5 5 5 5 5 6 6 6 5 4 5 6 5 6 7 7 9 18 20 20
3 4 4 4 5 4 5 7 10 7 6 6 5 5 5 4 4 5 4 4 4 3 5 5 5 5 4 4 5 6 6 4 2 3 4 4 4 4 5 7 17 20 19
3 4 4 5 5 3 2 4 7 5 5 6 5 5 5 4 6 7 4 4 4 3 3 3 4 4 5 5 4 4 5 5 4 3 2 3 4 3 3 4 10 18 18
4 4 5 5 5 4 2 1 4 3 5 5 5 4 4 5 7 7 4 4 4 4 4 3 2 3 3 4 7 6 6 6 4 3 4 4 4 4 3 2 5 9 11
Wind_Direction
222 223 222 209 209 211 210 215 234 256 270 272 256 244 234 214 188 153 156 166 164 169 175 178 178 177 174 170 166 161 158 155 155 154 151 148 143 139 136 133 132 130 126
235 220 227 218 210 208 209 212 229 244 263 280 285 275 269 233 196 152 158 171 173 175 181 185 186 183 182 181 177 171 164 161 161 157 152 151 148 145 143 141 139 139 135
279 259 241 236 219 209 208 212 226 244 255 265 279 280 276 260 233 179 167 170 179 185 186 187 187 187 187 186 184 179 173 170 167 161 158 156 155 155 154 153 151 148 145
334 322 303 282 256 222 208 205 206 213 235 246 261 276 275 265 253 251 189 179 176 183 192 191 186 187 190 190 189 186 182 178 174 170 166 164 164 164 164 163 160 159 155
334 325 315 293 283 248 222 222 204 200 220 232 242 257 275 268 256 253 244 213 187 176 179 190 188 186 189 192 193 190 188 185 182 180 175 172 171 172 171 169 169 168 166
338 333 318 307 301 284 256 236 219 207 211 216 240 247 259 269 263 256 254 246 209 185 180 178 183 190 192 191 193 194 193 190 189 188 184 181 178 179 178 178 178 177 175
346 338 333 324 320 296 279 261 236 224 222 205 209 250 260 255 256 251 258 260 240 205 177 171 179 183 190 194 193 194 196 195 193 193 191 188 185 185 185 186 186 185 184
353 345 345 331 318 303 287 277 256 234 238 207 186 186 232 251 251 240 241 247 247 223 191 178 186 187 180 181 194 193 194 194 196 195 195 193 190 190 190 192 192 190 190
354 355 344 337 327 322 301 293 261 244 246 239 214 193 192 215 223 232 233 233 238 238 219 192 190 191 183 179 183 192 190 190 196 198 198 196 194 193 193 194 194 194 191
0 4 350 340 335 327 317 304 296 261 243 249 253 238 235 225 187 228 250 234 233 235 231 224 209 197 185 177 180 185 188 188 193 200 200 199 198 197 196 196 197 195 192
348 8 356 341 331 323 320 313 312 282 249 240 239 244 253 254 236 212 233 233 233 235 227 224 222 214 193 181 177 182 186 187 190 196 200 200 199 199 199 200 198 197 194
342 7 356 342 332 334 323 311 302 289 269 254 247 236 227 226 222 217 224 225 227 234 227 222 221 219 206 181 189 179 184 186 189 192 195 198 200 201 202 201 199 198 194
342 354 354 331 326 321 311 308 304 290 274 263 252 243 237 235 236 235 234 237 235 239 228 228 218 212 214 188 189 179 184 185 188 190 191 193 196 198 201 202 200 197 194
329 342 339 320 315 315 313 309 304 295 286 274 265 256 246 242 237 227 222 220 236 237 230 234 222 210 208 192 185 177 184 186 188 189 189 190 192 193 195 198 198 197 195
330 338 323 322 323 316 311 310 299 302 302 290 278 271 254 245 243 238 229 216 208 219 229 223 217 215 203 189 171 184 181 190 190 189 189 190 190 190 190 191 191 191 187
313 315 336 339 330 329 334 338 320 307 298 288 274 267 262 247 242 240 238 233 221 215 232 224 213 208 200 198 182 187 194 189 195 192 191 191 190 188 187 185 185 182 178
324 337 341 338 330 335 339 341 328 318 310 300 294 285 278 266 249 241 237 231 228 218 233 244 224 209 197 205 190 194 189 183 195 197 193 192 190 187 184 182 181 178 175
329 329 334 334 334 337 341 336 327 328 322 313 301 294 288 287 273 255 244 240 234 223 220 235 230 211 209 203 193 196 195 192 190 197 196 193 191 186 183 180 177 175 173
337 332 336 336 335 338 346 344 343 334 323 316 312 308 298 288 276 271 261 249 243 239 225 224 230 214 209 197 189 196 194 190 194 192 194 194 190 185 181 178 175 173 172
327 327 339 337 340 346 352 356 346 330 322 318 311 306 301 288 273 277 272 262 253 246 238 227 222 214 207 197 186 192 195 190 192 184 188 190 188 183 180 177 175 172 171
333 339 343 338 345 341 358 359 339 328 321 315 312 309 306 296 288 279 277 273 267 252 248 235 226 215 206 189 196 188 194 183 190 178 172 181 181 184 183 181 178 174 172
311 323 329 332 332 336 344 343 338 322 314 313 314 313 308 301 291 278 272 268 256 249 245 237 229 222 217 204 196 192 185 178 195 181 179 187 178 183 183 183 180 175 173
299 310 312 315 313 316 323 334 337 322 305 308 314 318 321 333 341 322 289 276 264 253 239 234 237 233 224 210 195 197 195 188 188 171 168 186 180 187 179 178 175 174 173
303 301 296 296 297 306 324 336 337 319 306 311 320 330 334 349 6 356 332 313 295 274 250 234 233 240 238 220 201 201 195 177 152 161 156 170 168 171 162 169 173 172 171
281 287 288 281 284 284 292 329 340 313 310 318 330 343 343 349 354 349 332 318 314 305 288 250 243 247 247 235 205 179 176 176 183 176 156 149 145 132 141 164 170 170 168
270 277 281 273 270 271 224 276 338 313 320 326 326 333 357 356 345 345 328 316 315 318 326 306 269 261 247 228 211 201 192 186 172 172 169 151 147 135 130 128 157 165 162